Home > Weather > Friesoythe > Past weeks

Flag for Germany Weather for the Past 2 Weeks in Friesoythe, Lower Saxony, Germany

Now
63 °F

Mild.


Feels Like: 63 °F
Forecast: 55 / 75 °F
Wind: 2 mph from East

Location: Meppen-Mil

Current Time: May 7, 2016 at 1:06:54 AM

Latest Report: May 7, 2016 at 12:20 AM


Visibility: N/A

Pressure: 29.89 "Hg

Humidity: 56%

Dew Point: 46 °F

Location of FriesoytheLocation

Historic Weather in Friesoythe — Graph

°F

Friesoythe Temperature Yesterday

Maximum temperature yesterday: 77 °F (at 4:20 PM)
Minimum temperature yesterday: 46 °F (at 5:20 AM)
Average temperature yesterday: 63 °F

High & Low Weather Summary for the Past Weeks

 TemperatureHumidityPressure
High77 °F (May 6, 4:20 PM)94% (May 4, 8:20 AM)30.42 "Hg (May 4, 8:20 AM)
Low30 °F (Apr 25, 6:20 AM)28% (May 6, 4:20 PM)29.33 "Hg (Apr 26, 8:20 AM)
Average46 °F69%30.01 "Hg
* Reported Apr 21 11:20 PM — May 6 11:20 PM, Friesoythe, Weather by CustomWeather, © 2016

Note: Actual official high and low records may vary slightly from our data, if they occured in-between our weather recording intervals... More about our weather records

Advertising

Friesoythe Weather History for the Previous 24 Hours

Scroll right to see more
 ConditionsComfort  
Time TempWeatherWind HumidityBarometerVisibility
11:20 PM
Fri, May 6
64 °FMild.2 mph49%29.89 "HgN/A
10:20 PM66 °FMild.2 mph46%29.89 "HgN/A
9:20 PM68 °FMild.2 mph40%29.89 "HgN/A
8:20 PM73 °FMild.3 mph31%29.86 "HgN/A
7:20 PM75 °FMild.6 mph29%29.86 "HgN/A
6:20 PM77 °FPleasantly warm.6 mph30%29.89 "HgN/A
5:20 PM75 °FMild.7 mph29%29.89 "HgN/A
4:20 PM77 °FPleasantly warm.8 mph28%29.89 "Hg6 mi
3:20 PM75 °FMild.9 mph31%29.92 "HgN/A
2:20 PM73 °FMild.7 mph36%29.95 "HgN/A
1:20 PM72 °FMild.6 mph41%29.95 "HgN/A
12:20 PM68 °FMild.7 mph46%29.98 "HgN/A
11:20 AM68 °FMild.6 mph46%30.01 "HgN/A
10:20 AM63 °FMild.5 mph52%30.01 "HgN/A
9:20 AM61 °FRefreshingly cool.5 mph59%30.04 "HgN/A
8:20 AM55 °FCool.2 mph67%30.07 "HgN/A
7:20 AM50 °FCool.2 mph76%30.07 "HgN/A
6:20 AM46 °FCool.2 mph82%30.07 "HgN/A
5:20 AM46 °FCool.2 mph82%30.07 "HgN/A
4:20 AM48 °FCool.2 mph76%30.09 "HgN/A
3:20 AM50 °FCool.2 mph71%30.09 "HgN/A
2:20 AM52 °FCool.2 mph67%30.12 "HgN/A
1:20 AM54 °FCool.2 mph63%30.12 "HgN/A
Weather by CustomWeather, © 2016

See weather overviewHow to use our weather pages